Location: Bolzano
(46.5170°N, 11.3670°E)
Time: 23:28:05
(UTC+01:00)

ISS - Pass Details

Date: 05 December 2021
Orbit: 413 x 422 km, 51.6° (Epoch: 24 January)

Event Time Altitude Azimuth Distance (km) Brightness Sun altitude
Rises 18:40:15 0° 293° (WNW) 2,381 1.0 -21.9°
Reaches altitude 10° 18:42:28 10° 284° (WNW) 1,510 0.0 -22.3°
Maximum altitude 18:45:34 34° 218° (SW) 714 -2.3 -22.8°
Enters shadow 18:45:58 33° 201° (SSW) 732 -2.3 -22.9°
